Location: Quedlinburg
(51.7921°N, 11.1414°E)
Time: 14:01:42
(UTC+02:00)

RS-15 - Pass Details

Date: 18 March 2026
Orbit: 1893 x 2152 km, 64.8° (Epoch: 22 April)

Event Time Altitude Azimuth Distance (km) Brightness Sun altitude
Rises 21:03:21 0° 227° (SW) 5,265 10.5 -24.0°
Reaches altitude 10° 21:06:34 10° 229° (SW) 4,275 10.0 -24.4°
Maximum altitude 21:17:30 79° 316° (NW) 1,963 8.0 -25.8°
Drops below altitude 10° 21:28:54 10° 44° (NE) 4,430 9.8 -27.2°
Sets 21:32:19 0° 46° (NE) 5,465 10.3 -27.6°
